GFSFLT2_850_temp_102.txt.gz
Temp
8 8 7 5 6 6 6 6 5 5 5 4 4 4 4 4 4 3 3 3 3 2 3 3 2 2 1
8 7 6 4 5 5 5 5 4 4 3 4 3 3 3 3 3 3 2 2 2 2 2 2 2 1 1
7 6 6 5 5 4 4 4 3 3 3 3 3 3 2 2 2 2 2 2 2 2 2 1 1 0 0
6 5 5 5 4 4 4 3 2 2 2 2 2 2 2 2 2 2 2 2 1 1 1 1 1 0 0
5 4 4 4 4 3 3 2 2 2 2 2 2 2 1 1 1 1 1 1 1 1 0 0 0 0 -0
4 4 3 3 3 3 2 1 1 2 2 1 1 1 0 0 1 0 0 1 1 0 0 0 0 -0 -0
3 3 3 3 3 3 2 1 1 1 0 0 0 -0 -0 0 0 0 0 0 0 0 0 0 -0 -0 -0
3 3 3 2 2 2 1 1 0 -0 -0 -1 -0 -0 -0 0 0 0 0 0 0 0 -0 -0 -1 -1 -1
2 2 2 2 1 1 1 0 -1 -1 -1 -1 -0 -0 -0 -0 0 0 0 0 -0 -0 -0 -1 -1 -1 -1
2 2 1 0 1 1 0 -1 -1 -1 -1 -1 -0 -1 -0 0 0 0 -0 -0 -1 -1 -2 -2 -2 -2 -1
1 1 0 -0 -0 -0 -1 -1 -2 -2 -1 -1 -1 -1 -1 -0 -0 -1 -1 -1 -2 -2 -2 -2 -2 -3 -2
1 0 -0 0 -0 -1 -1 -2 -2 -3 -2 -2 -2 -2 -1 -1 -1 -1 -2 -2 -2 -2 -3 -3 -3 -4 -4
0 -0 -0 -0 -1 -1 -2 -2 -2 -2 -2 -2 -2 -2 -2 -2 -2 -2 -2 -2 -3 -3 -4 -4 -4 -4 -4
-0 -0 -0 -1 -1 -1 -1 -1 -2 -2 -2 -2 -2 -3 -3 -3 -3 -2 -3 -4 -4 -5 -5 -4 -4 -4 -5
-0 -0 -1 -1 -1 -1 -1 -1 -1 -2 -2 -2 -3 -3 -3 -3 -3 -3 -4 -4 -5 -5 -6 -5 -5 -6 -6
-1 -1 -1 -1 -1 -1 -1 -1 -1 -2 -2 -3 -3 -3 -3 -2 -3 -3 -4 -5 -6 -6 -7 -7 -5 -5 -6
-1 -1 -1 -1 -1 -1 -2 -2 -2 -2 -3 -4 -4 -5 -5 -4 -3 -5 -5 -6 -6 -6 -6 -7 -7 -5 -7

GFSFLT2_850_temp_105.txt.gz
Temp
9 9 8 8 7 5 5 6 6 5 5 5 4 4 4 4 4 4 4 4 3 3 3 3 3 2 2
8 8 8 7 5 4 4 5 5 4 4 4 3 4 3 3 3 3 3 3 3 3 3 3 2 2 1
8 8 7 6 5 5 5 4 4 3 3 3 3 3 3 3 2 2 2 3 3 2 2 2 2 1 1
7 6 6 5 5 4 4 4 3 3 2 2 2 2 2 2 2 2 2 2 2 2 1 1 1 1 1
6 6 5 5 5 4 3 3 2 2 2 2 2 2 2 2 1 1 2 1 1 1 1 1 0 0 0
5 5 5 4 4 3 3 2 2 2 2 2 2 1 1 1 1 1 1 0 1 0 0 0 0 -0 0
4 4 4 4 3 3 3 2 2 1 1 1 1 0 0 -0 0 0 0 0 0 0 0 0 -0 -0 -0
3 3 2 3 2 2 2 1 1 0 -0 -0 0 -0 -0 -0 0 0 0 0 0 0 0 -0 -1 -1 -1
2 2 2 2 2 2 2 1 0 0 -0 -0 -0 -1 -1 -0 0 0 0 0 -0 -0 -1 -1 -1 -1 -1
2 2 2 2 1 1 1 1 -0 -1 -0 -0 -0 -0 -0 0 -0 -0 -0 -0 -0 -1 -1 -2 -1 -1 -1
1 1 1 1 1 0 0 -0 -0 -0 -0 -0 -0 -0 -1 -0 -1 -0 -0 -1 -1 -2 -2 -2 -2 -2 -2
-1 0 0 0 -0 -0 -0 -0 -1 -1 -1 -1 -0 -1 -1 -1 -1 -1 -1 -2 -2 -2 -2 -3 -3 -3 -3
-1 -0 -0 -1 -1 -1 -0 -1 -1 -1 -1 -1 -1 -1 -1 -1 -1 -1 -1 -2 -3 -2 -3 -3 -3 -3 -3
-2 -1 -1 -1 -1 -1 -0 -1 -1 -1 -1 -1 -1 -1 -1 -1 -2 -1 -2 -2 -3 -4 -3 -3 -3 -4 -4
-1 -1 -1 -1 -1 -0 -1 -1 -1 -1 -1 -2 -2 -2 -2 -2 -2 -2 -3 -3 -3 -4 -4 -3 -4 -4 -5
-1 -1 -1 -1 -1 -1 -1 -1 -1 -2 -2 -2 -2 -3 -2 -2 -3 -2 -3 -3 -4 -4 -5 -5 -3 -4 -5
-1 -1 -1 -1 -1 -1 -1 -1 -2 -2 -2 -3 -3 -3 -3 -3 -4 -4 -4 -4 -5 -5 -5 -5 -5 -4 -5

GFSFLT2_850_temp_108.txt.gz
Temp
9 9 8 8 8 8 6 6 6 6 5 5 5 5 5 4 4 4 4 4 3 3 3 3 3 3 3
9 8 8 7 6 6 5 5 4 4 5 4 4 4 4 4 3 3 3 3 3 3 3 3 3 3 2
8 7 7 7 6 6 6 5 4 4 4 3 3 3 3 3 3 3 2 2 2 3 3 3 2 2 1
7 7 7 6 6 5 4 4 4 3 3 3 3 3 2 2 2 2 2 2 2 2 2 2 2 1 1
7 6 6 6 6 5 4 3 3 3 2 2 2 2 2 2 2 2 2 2 1 1 1 1 1 1 1
6 6 6 5 5 5 3 3 3 3 2 2 2 2 1 1 1 1 1 1 1 1 1 1 1 1 0
5 4 4 4 4 3 3 3 3 2 2 2 2 1 1 1 0 0 -0 0 1 1 0 0 1 0 0
4 3 3 3 3 2 2 1 1 1 1 0 1 0 0 -0 -0 0 0 0 0 0 0 1 0 0 -0
3 3 2 2 2 2 2 2 2 1 1 -0 0 -0 -1 -1 -0 -0 -0 0 0 0 0 0 -0 -0 -0
1 1 1 2 2 2 1 0 0 -0 0 -1 -0 -1 -1 -1 -1 -0 -0 0 0 0 -0 -1 -1 -1 -1
1 1 1 2 1 1 0 -0 -0 -0 -0 -1 -1 -1 -1 -1 -0 -1 -0 -0 -0 -1 -1 -1 -1 -1 -1
1 0 0 0 0 -0 -1 -1 -1 -1 -2 -2 -2 -1 -1 -1 -1 -1 -1 -1 -1 -2 -2 -2 -2 -2 -3
-0 -1 -1 -1 -1 -1 -2 -1 -1 -1 -2 -2 -1 -1 -1 -1 -1 -1 -1 -2 -2 -2 -2 -3 -3 -3 -3
-1 -2 -2 -1 -1 -2 -2 -2 -2 -2 -2 -2 -1 -1 -1 -1 -1 -1 -1 -2 -2 -3 -3 -3 -3 -3 -3
-1 -1 -1 -1 -2 -2 -2 -2 -2 -2 -1 -1 -1 -1 -1 -1 -0 -1 -2 -2 -3 -3 -3 -3 -3 -4 -4
-2 -1 -1 -1 -2 -2 -2 -2 -2 -2 -1 -1 -1 -1 -1 -1 -1 -1 -2 -2 -3 -4 -4 -3 -2 -4 -4
-1 -1 -2 -2 -2 -2 -2 -2 -2 -2 -2 -1 -1 -2 -2 -1 -2 -2 -2 -3 -4 -4 -4 -4 -3 -3 -4

GFSFLT2_850_temp_111.txt.gz
Temp
9 9 9 8 8 8 7 7 7 7 6 5 5 5 5 5 5 5 5 4 4 4 4 4 3 3 3
8 8 8 8 8 8 7 6 6 6 5 5 5 5 4 4 4 4 4 4 3 3 3 3 3 3 3
7 7 8 7 7 7 7 6 6 4 4 4 4 4 4 3 3 3 3 3 3 3 3 3 3 3 3
6 7 7 7 7 6 6 6 5 3 3 3 4 3 3 3 2 3 2 2 2 2 2 3 3 2 2
6 7 7 6 6 6 5 4 4 2 3 3 2 2 2 2 2 2 2 2 2 2 2 2 2 1 1
5 6 6 5 6 5 5 4 3 3 2 2 2 1 2 2 2 2 2 1 1 1 1 1 1 1 1
4 5 5 5 4 4 4 4 3 3 2 2 1 1 2 1 1 1 1 1 0 0 1 1 1 1 1
4 3 3 3 3 3 3 2 2 1 1 1 1 1 1 1 0 0 0 -0 -0 1 1 1 1 0 0
2 2 2 2 2 3 2 2 1 1 1 0 1 1 0 -0 -0 -0 -0 -0 -0 0 0 0 0 0 0
1 1 1 1 1 1 1 1 0 -0 1 -0 -0 -0 -1 -1 -1 -0 -0 -0 -0 0 0 -0 -0 0 -0
-0 -0 0 0 0 0 0 -0 -0 -0 0 -0 -1 -0 -1 -1 -0 -0 -0 -0 -0 -0 -1 -1 -1 -1 -1
-0 -0 -0 -0 -0 -1 -1 -1 -1 -1 -1 -1 -1 -1 -1 -1 -1 -0 -0 -0 -1 -1 -1 -1 -1 -1 -1
-1 -1 -1 -1 -1 -1 -1 -1 -1 -1 -1 -1 -2 -2 -2 -2 -1 -1 -1 -1 -1 -1 -1 -1 -1 -2 -2
-2 -2 -2 -2 -2 -2 -2 -2 -2 -1 -1 -1 -2 -2 -1 -1 -1 -1 -1 -2 -1 -1 -1 -1 -2 -2 -3
-2 -2 -3 -3 -2 -2 -2 -2 -2 -1 -1 -2 -1 -1 -1 -1 -1 -1 -1 -1 -1 -2 -1 -1 -2 -3 -3
-3 -2 -3 -3 -3 -3 -2 -2 -2 -1 -1 -1 -1 -1 -1 -1 -1 -0 -1 -1 -2 -2 -2 -1 -2 -3 -3
-3 -3 -3 -3 -4 -3 -3 -2 -1 -1 -2 -2 -1 -1 -1 -1 -1 -1 -1 -2 -2 -2 -2 -2 -2 -2 -3

GFSFLT2_850_temp_114.txt.gz
Temp
8 8 8 8 8 8 8 8 7 7 7 7 7 5 5 5 5 5 5 4 4 4 4 4 4 4 4
7 7 7 7 7 7 7 7 7 6 6 6 6 5 5 5 5 5 4 4 4 4 4 4 3 4 4
6 6 6 6 7 7 7 7 6 6 6 6 5 4 4 4 4 3 3 3 3 3 3 3 3 3 3
5 5 6 6 6 6 6 6 6 5 5 4 5 4 4 3 3 3 2 2 2 2 3 3 3 3 3
4 4 5 5 6 5 6 5 5 5 4 3 3 3 3 3 2 2 2 2 2 2 3 2 3 2 2
4 4 4 5 5 5 5 5 4 4 4 3 2 2 2 2 2 2 2 2 1 2 2 2 2 2 2
3 4 4 4 4 4 5 4 4 4 3 3 2 1 1 1 1 1 1 1 0 1 1 1 1 1 1
2 3 3 3 3 3 3 3 3 2 2 1 1 1 1 1 1 1 0 0 -0 -0 -0 0 1 1 1
2 2 2 2 2 2 2 2 2 1 1 0 0 1 1 0 -0 -0 -1 -0 -1 -1 0 1 1 1 1
1 1 1 1 1 1 1 1 0 0 0 -0 0 0 0 -0 -0 -1 -1 -1 -1 -1 0 1 1 1 1
-0 -1 -1 -1 -1 -1 -1 -1 -1 -0 0 0 -0 -0 -1 -0 -1 -1 -1 -1 -0 -0 0 1 0 0 0
-1 -1 -1 -1 -1 -1 -1 -1 -0 -0 -1 -1 -1 -1 -1 -1 -0 -0 -0 -0 -0 -0 0 0 0 -0 -0
-1 -1 -1 -2 -2 -2 -2 -2 -1 -1 -2 -2 -2 -2 -2 -1 -1 -0 -0 -0 -0 -0 -0 -0 -1 -1 -1
-2 -2 -2 -2 -3 -3 -3 -3 -3 -2 -2 -2 -2 -2 -2 -2 -1 -1 -1 -1 -0 -0 -0 -0 -1 -1 -2
-2 -2 -3 -3 -3 -3 -3 -3 -3 -3 -3 -3 -3 -2 -2 -1 -1 -1 -1 -1 -1 -1 -1 -1 -1 -1 -2
-3 -3 -3 -3 -4 -4 -3 -3 -4 -3 -4 -3 -2 -2 -1 -1 -1 -0 -0 -0 -1 -1 -1 -0 -1 -2 -2
-3 -3 -3 -3 -4 -4 -4 -4 -3 -3 -3 -3 -2 -2 -2 -1 -0 -0 -0 -1 -1 -1 -1 -1 -1 -3 -3

GFSFLT2_850_temp_117.txt.gz
Temp
9 9 8 8 8 8 8 8 8 7 7 6 7 7 6 6 5 5 5 5 5 5 5 5 5 4 4
9 8 7 7 7 7 7 7 7 7 7 7 6 6 5 5 5 4 5 5 4 4 4 4 4 4 3
5 5 5 5 6 6 6 6 6 6 6 6 6 5 4 4 4 4 4 4 4 4 3 3 3 3 3
4 4 4 5 5 6 6 6 6 6 5 5 5 4 4 4 4 3 3 3 3 3 3 2 2 2 3
4 3 4 4 5 5 5 5 5 5 5 4 4 3 3 3 3 2 2 2 2 2 2 2 2 2 2
3 3 3 3 4 4 4 5 4 5 4 4 3 3 2 2 2 2 2 2 2 2 2 2 2 2 2
3 2 3 3 3 3 4 4 4 4 4 3 3 2 2 1 1 1 1 2 1 1 1 2 1 1 1
2 2 2 2 2 2 3 2 2 2 2 2 3 2 1 1 1 0 1 1 1 1 0 1 0 0 0
1 1 2 2 2 2 2 2 2 2 2 1 2 1 1 1 0 0 0 0 0 -0 -1 -1 -1 -0 0
1 0 1 1 1 1 1 1 1 1 1 1 1 0 -0 1 0 -0 -1 -0 -0 -1 -1 -1 -0 0 1
-0 -0 -0 -0 -0 -0 -0 -0 -1 -1 -1 -1 -0 -0 -0 -0 -0 -1 -1 -1 -1 -1 -1 -0 0 1 0
-1 -1 -1 -0 -0 -0 -1 -1 -1 -1 -1 -2 -1 -1 -1 -1 -1 -0 -1 -1 -2 -1 -1 -0 -0 -0 -0
-1 -1 -1 -1 -1 -1 -1 -2 -2 -2 -2 -2 -2 -2 -2 -2 -2 -1 -1 -1 -1 -1 -1 -0 -0 -0 -0
-2 -2 -2 -2 -2 -2 -2 -2 -2 -3 -3 -3 -2 -3 -3 -3 -2 -2 -2 -1 -0 -1 -1 -1 -0 -0 -1
-2 -2 -2 -2 -2 -3 -3 -3 -3 -3 -3 -3 -3 -3 -3 -2 -2 -2 -2 -1 -1 -1 -1 -1 -0 -0 -0
-2 -2 -3 -2 -2 -3 -3 -3 -3 -3 -3 -3 -3 -3 -2 -2 -2 -1 -1 -1 -1 -1 -1 -1 -0 -1 -0
-3 -2 -3 -3 -3 -3 -3 -3 -3 -3 -3 -3 -3 -3 -3 -2 -1 -1 -1 -1 -1 -1 -1 -0 -1 -1 -1

GFSFLT2_850_temp_120.txt.gz
Temp
9 9 9 9 9 8 8 8 8 8 7 7 7 7 6 6 5 5 5 5 5 4 5 5 4 5 4
9 10 9 9 8 7 7 6 7 7 6 6 6 6 6 5 5 5 4 4 5 5 4 4 4 4 4
8 8 7 7 5 5 5 6 7 6 6 6 6 5 5 5 5 4 4 4 4 4 3 3 3 3 3
6 6 6 5 4 5 5 5 5 5 6 6 6 5 5 4 4 3 3 3 3 2 2 2 2 3 3
5 4 4 3 3 4 4 4 5 5 5 5 5 4 4 3 3 3 3 2 2 2 2 2 2 2 2
4 4 4 3 2 3 3 4 4 4 4 4 3 3 3 3 2 3 2 2 2 2 1 1 1 2 2
4 3 4 2 2 3 3 3 3 3 3 3 3 3 3 2 2 2 1 1 1 1 1 1 1 1 1
3 3 3 2 2 2 2 2 2 2 2 2 3 3 2 2 1 1 0 1 1 1 1 -0 0 0 0
2 2 2 1 1 1 1 2 2 2 1 1 2 2 1 1 0 0 -0 0 1 1 0 -1 -1 -1 -1
-1 1 1 1 1 1 1 0 1 0 1 1 1 1 -0 -0 -0 -0 -0 -0 0 -0 -0 -1 -2 -2 -2
-1 0 -0 -0 -0 -0 -0 -0 -0 -1 -0 -1 -0 -1 -1 -0 0 -0 -1 -1 -1 -1 -1 -2 -2 -2 -1
-1 -1 -1 -1 -1 -1 -1 -1 -1 -1 -1 -1 -2 -2 -1 -1 -1 -0 -1 -1 -2 -2 -1 -1 -1 -1 -1
-1 -1 -1 -1 -1 -1 -1 -1 -1 -1 -1 -1 -2 -2 -2 -2 -2 -2 -2 -1 -2 -2 -1 -1 -2 -1 -1
-2 -2 -1 -1 -1 -1 -2 -2 -2 -2 -2 -2 -2 -2 -2 -3 -3 -2 -2 -2 -1 -2 -1 -1 -1 -1 -1
-2 -2 -2 -2 -2 -2 -2 -2 -3 -3 -3 -2 -2 -3 -2 -3 -3 -3 -2 -2 -1 -1 -1 -1 -1 -1 -1
-2 -2 -2 -2 -2 -2 -3 -3 -3 -3 -3 -3 -3 -3 -2 -2 -2 -2 -3 -2 -2 -2 -2 -1 -1 -1 -1
-2 -3 -3 -3 -3 -3 -3 -3 -3 -3 -3 -3 -3 -3 -3 -3 -2 -2 -2 -2 -2 -2 -1 -1 -1 -1 -0

GFSFLT2_850_temp_123.txt.gz
Temp
9 9 9 8 8 8 8 8 7 7 7 7 7 7 7 6 6 6 5 5 5 4 4 4 5 5 4
9 7 9 9 9 8 8 7 6 5 6 6 6 6 6 6 6 5 5 4 4 4 4 4 4 4 4
8 8 8 8 8 7 6 5 4 4 5 5 6 6 6 5 5 5 5 4 4 4 4 4 3 3 3
6 6 6 6 6 5 5 4 4 4 5 5 5 5 5 5 5 4 4 4 3 3 3 3 2 2 2
5 5 5 5 4 2 2 3 4 4 4 5 4 5 4 5 4 4 3 3 3 2 3 2 2 2 2
5 4 4 3 3 1 2 2 3 3 4 4 4 4 4 3 3 3 3 3 2 2 2 2 2 1 2
3 3 4 3 3 3 2 2 2 2 2 3 3 3 2 2 2 2 2 2 1 1 1 1 1 1 1
3 2 2 2 2 2 2 2 2 2 2 2 2 2 2 2 2 2 2 1 0 0 0 1 1 1 1
-0 -0 1 1 2 2 2 2 0 1 2 1 1 1 2 2 2 2 1 -0 -1 0 -0 -0 0 -0 -0
-0 -1 0 1 1 1 1 1 -0 0 0 0 1 1 1 1 1 1 -0 -1 -1 -1 -1 -1 -1 -1 -1
0 0 -0 0 0 0 0 0 -0 -1 -1 -1 -0 -0 -1 -0 -0 -0 -0 -1 -1 -1 -1 -2 -2 -2 -2
-0 -0 -0 -0 -0 -0 0 -0 -0 -0 -1 -2 -2 -2 -2 -2 -2 -0 -0 -1 -1 -2 -2 -2 -2 -2 -3
-0 -1 -1 -0 -0 -0 -1 -1 -1 -1 -1 -2 -2 -2 -3 -3 -3 -2 -1 -1 -2 -2 -2 -2 -3 -2 -2
-0 -1 -0 -0 -1 -1 -1 -1 -1 -1 -2 -2 -2 -3 -3 -3 -3 -2 -2 -2 -1 -2 -2 -2 -3 -2 -1
-0 -0 -1 -1 -1 -1 -2 -2 -2 -2 -2 -3 -3 -3 -3 -3 -3 -2 -3 -2 -2 -2 -2 -2 -2 -2 -1
-1 -1 -1 -2 -2 -2 -3 -3 -2 -3 -3 -3 -3 -3 -3 -3 -3 -2 -2 -2 -2 -2 -2 -2 -1 -1 -1
-1 -2 -2 -2 -3 -3 -3 -3 -2 -3 -3 -4 -3 -3 -4 -3 -2 -2 -2 -2 -2 -2 -2 -2 -1 -1 -1